Temperature
28 27 26 26 29 31 30 30 31 30 30 30 29 29 28 27 26 24 23 22 21 20 20 20 19 19 19 19 19 19 19 18 18 18 18 18 18 18 18 18 18 18 18 18 18 18 18 18 18
28 27 27 29 31 30 30 31 30 30 30 30 29 28 27 26 25 23 22 22 21 20 19 20 20 19 19 19 19 18 18 18 18 18 18 18 18 18 18 18 18 18 18 18 18 18 18 18 18
28 28 30 33 32 31 30 31 31 31 30 30 29 28 27 26 25 23 22 22 21 20 20 20 20 19 19 19 19 19 18 18 18 18 18 18 18 18 18 18 18 18 18 18 18 18 18 18 18
28 30 32 33 32 32 32 32 32 31 30 30 29 27 26 25 24 23 23 22 21 20 20 20 20 19 19 19 19 19 18 18 18 18 18 18 18 18 18 18 18 18 18 18 18 18 18 18 18
30 33 33 33 32 33 33 33 32 31 30 29 28 27 26 25 24 24 23 23 21 20 20 21 20 20 19 19 19 19 18 18 18 18 18 18 18 18 18 18 18 18 18 18 18 18 18 18 18
33 34 33 32 32 33 34 33 32 31 30 29 28 26 25 24 24 24 24 23 22 21 20 21 20 20 19 19 19 19 19 18 18 18 18 18 18 18 18 18 18 18 18 18 18 18 18 18 18
34 34 33 33 33 33 34 33 32 32 31 30 28 27 25 25 25 24 24 23 22 21 20 20 20 20 20 19 19 19 19 18 18 18 18 18 18 18 18 18 18 18 18 18 18 18 18 18 18
35 34 34 34 33 33 33 33 32 31 31 30 29 28 26 25 25 24 24 23 22 22 21 20 19 19 19 19 19 19 19 18 18 18 18 18 18 18 18 18 18 18 18 18 18 18 18 18 18
35 34 33 34 33 33 34 33 32 31 31 30 29 28 26 25 25 24 23 23 22 22 21 20 20 19 19 19 19 19 19 19 18 18 18 18 18 18 18 18 18 18 18 18 18 18 18 18 18
35 34 34 35 35 34 34 33 32 31 31 29 28 27 25 25 24 24 24 23 22 22 21 21 20 20 19 19 19 19 18 18 18 18 18 18 18 17 17 18 18 18 18 18 18 18 18 18 18
36 34 35 36 35 34 34 34 33 32 31 30 28 26 25 25 25 24 24 23 22 22 21 21 20 20 20 19 19 19 18 18 18 18 18 18 18 18 18 18 18 18 18 18 18 18 18 18 18
36 36 36 35 35 35 34 34 33 32 31 30 28 27 26 25 25 25 24 23 22 22 21 21 20 20 20 19 19 19 19 19 19 18 18 18 18 18 18 18 18 18 18 18 18 18 18 18 18
36 36 36 35 35 34 34 33 33 32 31 29 28 27 26 26 25 25 24 23 22 22 21 21 20 20 20 20 19 19 19 19 19 18 18 18 18 18 18 18 18 18 18 18 18 18 18 18 18
36 36 36 36 35 33 32 32 32 32 31 30 28 27 27 26 26 25 24 23 22 22 21 21 20 20 20 20 20 19 19 19 19 19 18 18 18 18 18 18 18 18 18 18 18 18 18 18 18
36 35 35 35 35 33 32 30 32 32 31 30 29 28 27 27 26 25 24 23 22 21 21 21 20 20 20 19 20 19 19 19 19 19 18 18 18 18 18 18 18 18 18 18 18 18 18 18 18
36 34 33 35 35 34 32 30 32 32 31 31 30 29 27 27 26 25 24 23 22 21 21 21 20 20 20 20 19 19 19 19 19 19 19 18 18 18 18 18 18 18 18 18 18 18 18 18 18
35 34 33 34 35 35 33 32 33 32 32 31 30 29 28 27 26 25 24 23 22 22 21 21 20 20 20 20 19 19 19 19 19 19 19 18 18 18 18 18 18 18 18 18 18 18 18 18 18
34 34 34 34 35 35 34 33 34 33 32 32 31 30 28 27 26 25 24 23 22 22 21 21 20 20 20 19 19 19 19 19 19 19 19 18 18 18 18 18 18 18 18 18 18 18 18 18 18
35 35 34 35 36 35 34 34 34 34 33 32 31 30 29 27 26 25 24 23 22 22 21 21 20 20 20 20 20 19 19 19 19 19 19 19 18 18 19 18 18 18 18 18 18 18 18 18 18
35 34 34 35 36 35 34 34 34 34 34 33 32 30 29 28 27 25 25 24 23 22 21 21 21 20 20 20 20 20 19 19 19 19 19 19 18 18 18 19 18 18 18 18 18 18 18 18 18
34 34 34 35 35 35 34 33 33 34 34 33 32 31 30 29 27 26 25 24 23 22 21 21 21 20 20 20 20 19 19 19 19 19 19 19 18 18 18 18 18 18 18 18 18 18 18 18 18
34 35 35 35 34 33 34 31 31 33 33 34 33 32 31 29 28 26 25 24 23 22 22 21 21 20 20 20 20 19 19 19 19 19 19 19 18 18 18 18 18 18 18 18 18 18 18 18 18
35 36 35 35 34 33 34 32 32 33 33 33 33 32 31 30 28 27 25 24 24 23 22 21 21 20 20 20 20 19 19 19 19 19 19 19 19 18 18 18 18 18 18 18 18 18 18 18 18
35 35 34 34 34 32 33 32 31 31 33 34 34 33 31 30 29 27 26 25 24 23 22 21 21 21 20 20 20 20 19 19 19 19 19 19 19 18 18 18 18 18 18 18 18 18 18 18 18
34 33 32 32 32 31 33 33 32 33 34 34 34 33 31 30 29 27 26 25 24 23 22 21 21 21 20 20 20 20 20 19 19 19 19 19 18 18 18 18 18 18 18 18 18 18 18 18 18
34 33 31 30 31 31 32 32 33 35 35 34 34 33 32 30 29 28 26 25 24 23 22 22 21 21 21 20 20 20 20 20 19 19 19 19 19 18 19 18 18 18 18 18 18 18 18 17 17
33 33 34 33 32 31 31 32 33 34 34 34 33 32 32 31 30 28 27 25 24 24 23 22 21 21 21 21 21 20 20 20 19 19 19 19 19 18 18 18 18 18 18 18 18 18 18 17 17
34 34 33 32 31 31 31 32 32 32 33 33 33 32 31 31 30 28 27 26 25 24 23 22 22 21 21 21 21 20 20 20 20 19 19 19 19 19 18 18 18 18 18 18 18 17 17 17 17
33 33 32 32 32 31 30 30 33 32 32 33 33 32 31 30 30 29 27 26 25 24 23 22 22 21 21 21 21 20 20 20 20 20 20 19 19 19 18 18 18 18 18 18 17 17 17 17 17
34 33 33 31 31 31 31 30 33 33 34 34 33 32 31 30 30 29 27 26 25 25 23 22 22 21 21 21 21 21 20 20 20 19 19 19 19 19 18 18 18 18 17 17 17 17 17 17 17
Wind_Speed
9 11 10 6 3 8 17 17 17 17 17 16 17 16 19 17 13 13 13 17 18 17 16 15 13 13 13 13 13 13 13 13 13 13 13 13 13 13 13 13 13 13 13 13 13 12 12 12 12
9 12 9 4 4 12 15 15 15 14 14 15 19 20 21 20 18 16 15 16 18 17 16 15 14 13 13 13 13 13 13 13 13 12 12 12 12 12 12 13 12 12 12 12 12 11 11 10 10
11 15 7 2 12 14 15 14 13 13 13 17 18 18 16 15 16 14 15 16 18 18 18 16 15 14 13 13 13 12 12 12 12 12 12 11 11 11 12 12 12 12 11 12 11 11 10 10 10
8 7 1 9 17 16 14 13 14 14 13 15 15 13 15 15 16 17 16 17 18 18 18 16 15 14 13 13 12 12 12 11 11 11 11 11 10 10 11 11 11 11 11 11 10 10 10 9 9
9 3 6 14 17 14 14 15 15 15 15 17 19 17 16 17 18 17 15 17 17 18 18 17 15 14 13 12 12 11 11 11 11 11 11 10 10 9 10 10 11 11 11 10 10 9 9 8 8
4 0 8 13 16 14 14 15 15 14 15 17 18 17 15 15 14 14 14 15 17 18 18 17 16 14 13 12 11 10 10 10 10 10 10 10 9 9 9 10 10 10 10 10 9 9 9 8 6
3 3 11 14 15 14 14 14 14 13 13 14 16 16 14 14 13 13 13 14 15 17 17 15 15 14 13 12 11 10 9 9 9 9 10 9 9 9 9 10 10 10 10 9 9 9 8 7 5
3 4 9 13 14 14 15 14 15 13 12 11 12 12 14 14 13 13 13 13 12 13 14 14 15 15 13 12 11 11 10 9 9 9 9 9 9 9 10 11 10 9 9 8 8 8 7 6 5
5 4 9 12 12 13 14 14 13 12 11 12 14 16 17 16 14 13 12 12 10 10 10 11 12 12 12 13 12 11 10 9 9 9 9 9 8 9 9 10 10 9 8 8 7 7 7 6 6
4 6 12 12 12 11 11 11 12 12 12 14 17 18 18 15 14 12 12 12 11 10 10 9 9 9 10 10 11 10 9 10 8 9 9 7 6 7 9 11 10 9 8 8 8 7 7 7 7
7 8 9 10 11 10 10 10 10 12 12 14 17 18 17 14 12 12 11 11 11 10 8 9 9 6 7 6 7 6 7 8 7 8 8 7 7 8 9 8 8 8 8 7 8 8 7 7 5
5 6 7 8 8 8 9 10 11 12 14 15 17 17 16 14 12 10 11 11 11 9 8 9 8 6 6 5 4 4 5 5 5 7 8 7 4 4 5 5 6 7 5 4 5 4 5 4 3
3 4 5 6 7 8 9 10 10 13 15 16 17 16 15 14 12 10 11 11 11 9 8 9 8 7 5 3 1 3 4 5 6 7 6 6 4 3 4 3 4 4 4 4 3 2 2 2 2
1 1 3 5 8 9 6 7 8 12 14 15 16 15 14 13 13 12 11 10 10 9 9 9 9 7 5 3 1 1 3 5 6 6 7 6 5 4 3 3 2 3 3 3 2 2 2 1 1
3 3 2 4 6 9 7 2 2 11 13 14 14 13 13 12 13 13 11 10 11 9 9 9 9 8 6 4 3 2 3 4 4 4 6 6 6 5 3 3 2 3 3 3 2 1 2 2 2
8 5 4 3 4 9 9 4 6 9 12 12 13 13 13 11 12 13 13 10 11 10 9 8 8 9 7 4 2 1 2 3 4 5 5 5 7 6 3 2 2 4 4 3 2 2 2 2 2
9 8 8 5 4 5 6 7 9 10 11 11 12 13 13 12 11 12 13 12 11 10 10 7 6 8 7 6 3 2 2 2 2 4 5 5 5 5 3 2 2 4 3 2 4 3 2 1 2
8 5 4 5 5 4 4 6 8 10 11 11 12 12 13 13 12 12 12 12 12 11 10 8 7 7 6 5 3 2 2 2 2 2 5 6 5 5 4 3 4 4 2 2 1 2 2 1 3
7 7 3 1 2 3 2 4 8 8 9 10 11 11 13 13 13 12 12 12 13 11 10 9 8 8 6 4 4 3 3 3 3 3 6 6 6 6 4 2 3 3 3 3 4 3 3 3 3
8 9 6 3 3 3 2 2 5 7 9 9 11 12 13 13 13 12 12 11 12 12 10 10 9 8 7 5 4 3 3 3 4 2 5 7 6 6 5 3 3 3 2 3 2 2 2 3 3
10 8 7 5 4 5 5 3 3 5 7 9 10 11 13 15 15 14 12 11 11 12 12 10 9 9 8 6 5 3 2 1 2 3 3 4 6 6 4 4 4 2 3 3 3 4 4 3 3
10 7 8 7 7 7 8 4 5 7 8 10 10 11 12 13 14 14 13 12 12 12 12 9 9 9 8 7 6 6 5 4 3 3 3 4 4 4 5 4 3 2 2 2 4 4 3 3 3
9 8 8 10 10 10 8 4 4 6 8 9 10 11 11 13 14 14 14 12 11 11 11 10 9 8 8 7 6 5 4 3 3 3 4 4 3 3 4 4 3 3 2 3 3 1 3 3 4
9 9 10 11 11 10 10 6 2 3 5 6 9 10 11 11 12 13 13 12 10 11 11 11 10 8 8 7 7 6 5 3 2 2 3 3 3 3 3 3 3 3 2 2 2 2 3 3 3
11 10 8 9 9 8 7 5 4 6 4 6 8 10 11 11 12 12 13 12 11 11 11 11 11 9 8 8 7 6 6 5 5 4 4 4 3 3 3 3 3 2 2 3 3 3 3 4 4
13 13 11 9 7 3 5 5 5 8 7 6 8 9 10 12 12 13 13 12 11 11 11 11 11 9 9 8 7 6 6 5 4 4 3 3 3 3 3 3 3 3 2 3 2 3 4 3 4
14 13 14 14 13 8 6 4 5 9 9 8 8 9 9 10 12 12 13 13 12 11 11 11 10 10 9 8 7 6 5 4 3 3 4 3 3 3 3 3 3 2 2 2 2 2 2 1 2
15 13 10 11 9 9 7 6 3 9 8 9 8 9 10 10 11 12 12 12 12 12 11 11 11 10 9 8 7 7 6 5 4 3 3 2 2 2 2 2 2 2 2 2 2 2 2 1 2
15 15 12 9 10 10 7 3 4 6 7 7 8 9 9 9 11 12 11 12 12 12 13 11 10 10 9 9 7 6 7 6 5 4 4 3 3 2 2 3 2 2 2 2 2 2 1 1 1
15 16 14 10 9 9 8 4 2 4 7 6 7 8 9 9 10 12 12 11 11 12 13 12 11 11 10 9 8 6 6 6 6 5 4 4 3 3 3 3 2 3 2 1 1 2 1 1 1
Wind_Direction
244 236 226 242 239 71 64 61 64 65 64 62 62 67 64 61 77 96 113 116 117 115 115 108 99 96 94 95 96 96 95 97 99 97 96 96 97 99 100 101 101 102 103 105 107 108 109 109 109
259 249 236 240 69 74 72 71 69 70 74 73 71 75 75 75 87 103 112 118 119 118 117 110 106 101 97 96 96 97 96 98 101 100 99 99 99 101 102 103 105 106 108 107 106 107 109 111 114
258 256 261 82 69 71 75 80 84 82 84 84 74 69 72 87 97 109 120 124 115 110 109 111 110 105 102 100 99 98 98 99 102 101 101 101 101 104 105 105 106 106 107 107 107 106 107 110 114
264 251 198 75 73 72 78 84 88 83 79 85 87 79 77 88 104 116 127 124 116 116 113 115 114 111 108 105 102 102 102 103 104 104 104 103 103 105 106 106 107 108 109 108 107 108 108 111 116
248 277 84 80 79 78 82 88 85 83 81 83 88 93 91 95 108 122 128 123 118 115 117 121 120 118 115 112 109 108 107 106 106 105 105 107 106 104 105 109 108 110 113 113 112 111 110 114 121
282 274 81 80 81 79 83 88 89 91 95 101 104 102 103 114 123 127 122 120 120 119 120 125 126 125 123 120 117 115 113 113 115 113 112 112 112 110 111 114 112 111 114 118 118 117 115 118 127
304 38 85 90 86 81 78 83 92 93 92 96 109 113 121 126 126 121 118 115 121 123 128 134 136 134 132 129 126 123 120 121 124 124 124 123 121 119 118 121 116 115 117 120 121 121 122 128 140
27 57 80 85 86 86 84 81 82 83 86 103 114 120 130 131 129 120 117 112 111 119 127 138 143 142 144 138 135 132 130 131 135 136 136 134 131 131 131 129 123 124 126 128 130 130 134 144 163
27 63 79 84 88 92 92 93 94 96 90 80 88 113 128 137 131 129 123 116 114 115 123 134 136 144 145 141 140 144 143 146 148 151 150 149 149 143 143 131 132 133 137 142 148 151 156 165 183
68 66 76 85 92 94 97 106 117 107 99 94 99 112 127 137 140 144 138 136 135 134 129 133 130 139 143 136 143 154 157 155 168 157 161 169 157 136 128 134 140 147 153 159 173 176 180 191 192
73 76 81 87 92 101 101 102 109 108 112 118 124 132 139 143 150 147 143 139 137 135 129 133 124 125 119 122 145 148 146 147 162 152 158 158 147 136 135 145 154 166 174 181 176 192 204 206 196
73 83 82 88 91 94 92 90 86 88 103 122 132 139 145 153 156 149 140 135 135 134 133 127 118 107 93 107 124 136 137 146 146 151 163 157 158 146 143 151 167 174 181 176 175 192 195 180 168
83 95 103 104 99 85 85 87 91 101 112 123 134 144 151 156 155 146 135 132 135 140 135 118 110 102 95 85 140 141 132 135 144 148 165 159 157 147 144 161 179 173 169 172 170 177 152 147 167
28 87 113 119 102 90 78 100 113 117 125 133 141 149 156 156 153 141 142 142 141 141 138 128 128 126 127 141 217 113 132 135 138 157 157 157 143 137 142 155 177 165 160 145 158 169 148 195 185
252 238 197 156 123 119 94 56 147 135 137 143 147 153 155 159 153 151 153 153 150 146 140 140 148 148 157 172 196 167 156 143 139 143 145 151 140 146 162 162 180 158 150 144 169 185 174 203 196
237 229 225 200 141 136 130 166 200 159 151 151 155 157 156 161 161 155 155 160 149 149 147 166 168 154 164 174 190 208 154 135 143 151 151 153 144 166 185 174 165 165 176 174 186 224 213 202 198
244 221 200 194 184 178 159 166 183 171 160 158 162 161 160 165 167 157 160 161 152 151 155 169 157 154 165 168 179 202 137 128 152 158 153 157 163 175 194 159 151 196 198 193 211 185 199 200 213
282 266 212 182 178 212 170 160 164 170 170 165 164 163 163 171 172 162 163 160 154 156 161 166 164 162 165 163 173 208 167 156 176 171 153 161 183 188 202 183 177 209 196 192 193 169 216 229 227
286 287 260 199 237 254 223 177 170 175 173 162 164 166 168 170 168 164 167 166 162 160 161 166 172 166 173 175 180 185 182 192 185 181 166 177 198 192 203 206 183 208 205 199 196 194 206 224 224
261 275 268 227 208 262 270 252 192 178 176 169 169 170 172 170 166 165 169 171 167 164 167 170 175 173 181 180 179 189 187 204 185 181 165 185 195 196 196 190 212 211 207 210 217 198 232 243 223
254 263 281 287 298 265 251 240 252 201 180 166 172 173 172 171 168 170 174 174 173 170 174 178 177 178 185 177 179 189 176 235 189 174 174 195 199 202 212 188 215 222 217 202 210 214 220 232 258
258 259 271 278 275 275 260 249 219 207 188 175 172 170 170 165 166 170 174 176 177 174 173 170 174 179 180 184 194 193 195 203 196 182 174 193 203 201 198 204 211 229 248 213 219 210 212 219 243
265 283 277 275 270 271 274 265 213 209 190 176 169 166 163 164 167 170 172 174 175 173 170 169 170 174 178 189 198 204 209 207 196 177 173 187 200 217 208 196 201 216 235 240 245 204 215 225 242
263 267 266 263 263 255 258 256 216 217 177 166 156 151 152 157 159 161 164 165 169 169 168 166 166 173 178 189 198 199 207 212 207 189 178 194 202 215 211 194 194 204 216 234 235 230 228 233 253
239 249 253 249 243 250 251 240 186 164 141 141 145 145 149 152 154 156 160 164 168 169 168 164 165 174 181 188 197 196 204 209 209 214 199 205 210 208 204 193 186 212 218 220 224 223 240 237 240
230 240 249 261 267 260 246 234 152 130 119 125 134 139 147 156 158 161 163 164 169 170 167 165 166 173 179 185 190 193 201 214 206 203 207 205 215 203 187 180 192 211 230 238 221 228 232 228 235
244 242 254 264 266 264 242 230 152 146 143 145 143 144 152 156 156 160 161 164 168 170 166 166 164 172 180 185 184 190 197 207 205 196 205 203 203 203 176 182 191 204 226 248 230 240 255 243 246
249 258 261 262 272 272 249 242 207 144 149 151 152 153 151 153 158 156 159 164 168 168 163 165 167 173 176 177 182 185 188 193 199 202 195 202 210 224 177 185 196 205 221 235 240 242 248 242 250
226 241 257 273 272 272 267 288 116 138 157 162 159 150 152 167 164 158 161 162 166 166 165 167 166 169 174 177 180 179 175 185 185 192 198 200 216 207 199 201 206 214 225 236 240 253 242 236 266
237 234 235 245 260 273 269 249 160 148 153 151 150 148 154 167 164 158 158 162 168 168 166 167 172 175 176 175 174 177 174 178 185 189 189 194 203 211 205 206 208 218 216 220 249 272 282 279 282
Height
1478 1478 1478 1480 1477 1479 1486 1483 1480 1482 1484 1486 1487 1489 1494 1497 1503 1517 1520 1521 1523 1524 1525 1526 1527 1528 1529 1530 1531 1532 1533 1534 1535 1536 1537 1538 1539 1540 1541 1542 1543 1544 1546 1547 1548 1550 1551 1552 1553
1478 1478 1481 1478 1477 1491 1493 1485 1485 1486 1488 1490 1492 1495 1499 1504 1510 1516 1520 1524 1525 1526 1527 1528 1529 1530 1531 1532 1533 1534 1535 1536 1537 1538 1539 1540 1541 1542 1543 1544 1545 1546 1548 1549 1550 1551 1553 1553 1555
1478 1479 1479 1472 1478 1489 1492 1485 1486 1487 1489 1493 1497 1500 1505 1510 1514 1518 1523 1525 1527 1528 1528 1530 1530 1532 1533 1534 1535 1536 1537 1538 1539 1540 1541 1542 1543 1544 1545 1546 1547 1548 1549 1550 1552 1553 1554 1555 1556
1480 1478 1475 1474 1484 1482 1482 1483 1485 1488 1492 1494 1499 1505 1511 1514 1517 1521 1524 1527 1528 1529 1530 1531 1532 1533 1535 1536 1537 1538 1539 1540 1541 1542 1543 1544 1545 1546 1547 1547 1549 1550 1551 1552 1553 1554 1555 1556 1557
1481 1476 1474 1480 1484 1481 1480 1483 1487 1491 1495 1499 1504 1510 1515 1519 1521 1523 1526 1528 1530 1531 1531 1533 1534 1535 1536 1537 1538 1540 1541 1542 1543 1544 1545 1546 1547 1547 1548 1549 1550 1551 1552 1553 1554 1555 1556 1558 1559
1479 1473 1481 1489 1486 1481 1481 1485 1489 1493 1496 1501 1507 1512 1518 1522 1523 1526 1528 1530 1531 1532 1533 1534 1535 1537 1538 1539 1540 1541 1542 1543 1544 1545 1546 1547 1548 1549 1550 1551 1552 1553 1554 1555 1556 1557 1558 1559 1560
1479 1474 1481 1484 1487 1486 1484 1487 1490 1493 1497 1501 1507 1513 1519 1523 1525 1527 1530 1532 1533 1534 1534 1536 1537 1538 1539 1540 1541 1542 1544 1545 1546 1547 1548 1549 1550 1551 1551 1552 1553 1554 1555 1556 1557 1558 1559 1561 1562
1475 1477 1480 1482 1487 1489 1487 1489 1493 1496 1499 1503 1506 1512 1519 1524 1527 1529 1531 1533 1535 1537 1537 1538 1539 1540 1541 1542 1543 1544 1545 1546 1547 1548 1549 1550 1551 1552 1553 1554 1555 1556 1557 1558 1559 1560 1561 1562 1563
1476 1480 1485 1484 1486 1487 1488 1492 1496 1498 1501 1503 1506 1512 1519 1524 1527 1530 1533 1535 1537 1538 1539 1540 1541 1542 1543 1544 1545 1545 1546 1547 1548 1549 1551 1552 1553 1554 1555 1556 1556 1557 1558 1559 1561 1562 1563 1564 1565
1477 1483 1482 1478 1481 1485 1488 1491 1494 1498 1503 1507 1512 1517 1521 1525 1528 1530 1533 1535 1537 1539 1541 1542 1543 1544 1545 1546 1546 1547 1548 1548 1550 1551 1552 1554 1555 1556 1557 1557 1558 1559 1560 1561 1562 1564 1565 1566 1567
1476 1480 1478 1479 1482 1485 1487 1490 1493 1496 1502 1508 1513 1519 1523 1526 1528 1531 1533 1535 1537 1539 1541 1543 1544 1545 1547 1547 1548 1549 1550 1550 1551 1553 1554 1555 1556 1557 1558 1558 1559 1560 1561 1562 1564 1565 1565 1566 1568
1477 1478 1479 1481 1484 1486 1488 1491 1494 1497 1503 1509 1514 1518 1523 1526 1528 1530 1533 1535 1538 1540 1542 1543 1544 1546 1547 1548 1549 1551 1551 1552 1553 1553 1555 1556 1557 1558 1559 1560 1560 1561 1562 1564 1565 1566 1567 1568 1569
1478 1479 1480 1482 1484 1487 1490 1493 1497 1500 1505 1510 1514 1519 1522 1525 1528 1531 1533 1535 1537 1539 1541 1543 1544 1545 1546 1548 1549 1551 1552 1553 1553 1554 1555 1557 1558 1559 1560 1560 1561 1562 1564 1565 1566 1567 1568 1569 1570
1480 1479 1480 1481 1485 1489 1493 1495 1499 1501 1505 1510 1514 1518 1521 1524 1527 1530 1533 1535 1537 1539 1541 1542 1543 1544 1545 1547 1549 1550 1552 1553 1554 1555 1556 1557 1558 1559 1560 1561 1562 1563 1564 1565 1566 1567 1568 1569 1569
1480 1481 1482 1481 1483 1487 1494 1502 1499 1501 1504 1508 1513 1517 1521 1524 1526 1529 1532 1534 1536 1538 1540 1541 1543 1544 1545 1547 1548 1551 1552 1553 1554 1555 1556 1557 1558 1559 1560 1561 1562 1563 1564 1565 1566 1567 1568 1568 1569
1479 1484 1492 1483 1482 1486 1496 1510 1498 1500 1502 1506 1511 1515 1519 1523 1526 1528 1531 1534 1535 1537 1539 1541 1543 1543 1545 1546 1547 1550 1552 1553 1554 1555 1555 1557 1557 1559 1560 1561 1562 1563 1564 1565 1566 1567 1567 1568 1569
1482 1491 1492 1485 1480 1481 1488 1499 1494 1496 1499 1503 1508 1512 1517 1522 1525 1527 1530 1532 1534 1535 1537 1540 1542 1543 1544 1546 1547 1549 1551 1552 1553 1554 1555 1556 1557 1558 1559 1560 1561 1562 1563 1564 1565 1566 1567 1567 1568
1491 1487 1485 1484 1477 1478 1484 1489 1488 1492 1495 1499 1505 1510 1515 1519 1523 1526 1529 1531 1533 1534 1536 1538 1540 1542 1543 1545 1546 1548 1550 1551 1552 1553 1554 1555 1556 1557 1558 1559 1560 1561 1563 1563 1564 1565 1565 1566 1566
1481 1483 1486 1480 1474 1477 1482 1485 1485 1488 1491 1496 1501 1507 1512 1516 1521 1524 1527 1530 1531 1533 1535 1537 1539 1540 1542 1544 1545 1547 1548 1550 1551 1552 1553 1554 1555 1556 1557 1558 1559 1560 1561 1562 1563 1563 1564 1564 1565
1480 1485 1483 1478 1472 1477 1482 1484 1482 1485 1488 1492 1497 1503 1508 1513 1518 1522 1525 1528 1530 1531 1533 1535 1537 1539 1541 1543 1544 1546 1548 1549 1550 1551 1552 1553 1554 1555 1556 1557 1558 1559 1560 1560 1561 1561 1562 1563 1564
1481 1484 1483 1482 1476 1476 1483 1491 1487 1484 1486 1490 1494 1499 1504 1509 1515 1519 1523 1526 1528 1530 1531 1534 1535 1537 1539 1541 1543 1545 1547 1548 1549 1550 1551 1552 1553 1554 1555 1555 1556 1557 1558 1558 1559 1560 1560 1561 1562
1485 1475 1476 1479 1486 1490 1485 1506 1495 1486 1485 1486 1490 1495 1500 1506 1512 1516 1520 1523 1526 1528 1530 1532 1534 1535 1537 1540 1542 1543 1545 1546 1548 1549 1549 1551 1552 1552 1553 1554 1555 1555 1556 1556 1557 1557 1558 1559 1559
1479 1473 1476 1478 1484 1490 1485 1498 1498 1484 1486 1484 1487 1492 1497 1503 1509 1514 1518 1521 1524 1527 1529 1530 1532 1534 1535 1537 1539 1541 1543 1545 1546 1547 1548 1549 1550 1550 1551 1552 1553 1553 1554 1554 1555 1555 1556 1556 1557
1475 1477 1479 1480 1484 1503 1491 1496 1504 1490 1484 1482 1484 1490 1496 1501 1507 1512 1516 1519 1523 1525 1527 1529 1530 1532 1534 1536 1537 1539 1541 1542 1544 1546 1546 1547 1548 1549 1550 1550 1551 1551 1552 1552 1552 1553 1553 1554 1554
1478 1490 1504 1507 1506 1504 1484 1490 1494 1479 1476 1479 1483 1488 1495 1500 1505 1510 1514 1518 1521 1523 1526 1527 1528 1530 1532 1534 1535 1537 1539 1541 1542 1543 1544 1546 1546 1547 1548 1548 1548 1549 1549 1550 1550 1550 1550 1551 1551
1479 1485 1506 1518 1514 1504 1493 1492 1481 1471 1474 1478 1483 1488 1494 1499 1503 1508 1512 1516 1519 1521 1524 1525 1527 1528 1530 1532 1534 1535 1537 1539 1540 1541 1542 1543 1544 1545 1546 1546 1546 1547 1547 1547 1547 1547 1548 1548 1548
1480 1481 1476 1488 1493 1504 1500 1484 1475 1470 1474 1478 1483 1488 1492 1497 1502 1506 1510 1514 1517 1520 1522 1524 1525 1527 1528 1530 1532 1534 1535 1537 1538 1540 1541 1542 1542 1543 1544 1544 1544 1544 1545 1545 1545 1545 1545 1545 1545
1474 1474 1480 1490 1506 1512 1501 1492 1487 1479 1478 1478 1482 1487 1491 1496 1500 1505 1509 1512 1515 1518 1520 1522 1523 1525 1527 1528 1530 1532 1533 1535 1536 1538 1539 1539 1540 1541 1541 1542 1542 1542 1542 1542 1542 1543 1543 1543 1543
1477 1480 1482 1484 1487 1504 1514 1505 1475 1477 1477 1477 1480 1485 1490 1494 1498 1502 1507 1510 1513 1516 1518 1520 1522 1523 1525 1527 1529 1531 1532 1534 1535 1535 1536 1537 1538 1539 1539 1539 1539 1539 1540 1540 1540 1540 1540 1540 1541
1468 1473 1479 1495 1496 1491 1500 1501 1473 1473 1473 1476 1479 1484 1488 1492 1495 1500 1504 1508 1512 1514 1516 1518 1520 1522 1524 1525 1527 1529 1530 1532 1533 1534 1534 1535 1536 1536 1537 1537 1537 1537 1537 1537 1538 1538 1538 1538 1538